Content
SEND FEEDBACK

Daily
Averages
Monthly
Summary
United States of America

GLENVIEW, ILLINOIS


Home > North America > United States > Illinois
Elevation: 653 feet     Latitude: 42 05N     Longitude: 087 50W

WEATHER
 
SELECT A DAY
Number of Records: 194,860;   Date Range: 7/8/95 - 7/26/14
 
SHARE

PRINT THIS DATA

[ ← Previous Day ]
WEATHER ALMANAC - JANUARY 18, 2013
[ Next Day → ]
[ °C ]   °F
Weather ElementAverageHighLow
Temperature33.1 °F43 °F (1:52 pm)16 °F (1:52 am)
Dewpoint21.8 °F28 °F (6:52 pm)10.9 °F (1:52 am)
Humidity64.1 %81 % (1:52 am)51 % (12:52 pm)
Barometer30.18 in30.46 in (2:52 am)29.92 in (11:52 pm)
Wind Speed14.4 mph27.6 mph (12:52 pm)
Wind Gust36.8 mph (12:52 pm)
Weather ElementAverage
Visibility10 mi
Wind DirectionS (175.2 °)

Weather ElementTotal
Precipitation---
Heating Degree Days35.5 (Base 65)
Averaged from 23 records on January 18, 2013
WEATHER CONDITIONS BREAKOUT
WIND DIRECTION BREAKOUT
WEATHER BY HOUR - JANUARY 18, 2013
[ °C ]   °F
Local TimeTemperatureDewpointHumidityBarometerVisibilityWind DirectionWind SpeedGust SpeedPrecipitationEventsConditions
1:52 AM16.0 °F10.9 °F81 %30.45 in10.0 miCalmPartly Cloudy
2:52 AM19.9 °F12.9 °F74 %30.46 in10.0 miCalmClear
3:52 AM21.0 °F14.0 °F74 %30.45 in10.0 miWNW (290°)3.5 mphOvercast
4:52 AM21.0 °F15.1 °F78 %30.43 in10.0 miCalmMostly Cloudy
5:52 AM21.9 °F15.1 °F75 %30.40 in10.0 miSSE (160°)5.8 mphOvercast
6:52 AM23.0 °F17.1 °F78 %30.40 in10.0 miSouth (180°)6.9 mphOvercast
7:52 AM23.0 °F16.0 °F74 %30.39 in10.0 miSouth (180°)6.9 mphScattered Clouds
8:52 AM26.1 °F18.0 °F71 %30.36 in10.0 miSouth (170°)10.4 mphOvercast
9:52 AM30.0 °F19.0 °F64 %30.33 in10.0 miSSW (200°)13.8 mphOvercast
10:52 AM33.1 °F19.9 °F59 %30.28 in10.0 miSSW (200°)17.3 mph26.5 mphClear
11:52 AM37.0 °F21.9 °F54 %30.20 in10.0 miSSW (200°)21.9 mph35.7 mphClear
12:52 PM41.0 °F24.1 °F51 %30.13 in10.0 miSSW (200°)27.6 mph36.8 mphClear
1:52 PM43.0 °F26.1 °F51 %30.08 in10.0 miSouth (190°)27.6 mph33.4 mphClear
2:52 PM43.0 °F26.1 °F51 %30.03 in10.0 miSSW (200°)21.9 mph33.4 mphClear
3:52 PM43.0 °F27.0 °F53 %29.99 in10.0 miSSW (200°)21.9 mph33.4 mphClear
4:52 PM41.0 °F27.0 °F57 %29.99 in10.0 miSSW (200°)20.7 mph32.2 mphClear
5:52 PM41.0 °F27.0 °F57 %29.99 in10.0 miSSW (200°)23.0 mph29.9 mphClear
6:52 PM39.9 °F28.0 °F63 %29.99 in10.0 miSSW (210°)19.6 mph25.3 mphClear
7:52 PM39.9 °F28.0 °F63 %29.98 in10.0 miSSW (210°)21.9 mph36.8 mphClear
8:52 PM39.0 °F28.0 °F65 %29.97 in10.0 miSSW (200°)16.1 mph26.5 mphClear
9:52 PM39.9 °F27.0 °F60 %29.95 in10.0 miSSW (210°)16.1 mph27.6 mphClear
10:52 PM39.0 °F27.0 °F62 %29.93 in10.0 miSSW (210°)16.1 mph24.2 mphClear
11:52 PM39.9 °F27.0 °F60 %29.92 in10.0 miSW (220°)11.5 mphClear
Hourly data recorded from KPWK, located miles away from Glenview, Illinois







STORIES FROM OUR PARTNERS